Location: Unspecified
(20.0000°S, 0.0000°E)
Time: 10:04:20
(UTC+00:00)

EO-79 - Visible Passes

Search period start: 05 April 2026 00:00
Search period end: 15 April 2026 00:00
Orbit: 508 x 522 km, 98.1° (Epoch: 28 March)

Date Brightness Start Highest point End Pass type
(mag) Time Alt. Az. Time Alt. Az. Time Alt. Az.
5 Apr ? 04:47:17 10° ENE 04:49:35 16° ESE 04:51:54 10° SE visible
8 Apr ? 05:34:02 10° NNE 05:37:46 82° ESE 05:41:35 10° S visible
8 Apr ? 18:51:25 10° SW 18:53:45 16° WSW 18:56:04 10° WNW visible
9 Apr ? 05:19:01 10° NNE 05:22:37 45° ESE 05:26:15 10° S visible
9 Apr ? 18:35:26 10° SSW 18:38:38 26° WSW 18:41:47 10° NW visible
10 Apr ? 05:04:16 10° NE 05:07:26 26° ESE 05:10:40 10° SSE visible
10 Apr ? 18:19:49 10° S 18:23:27 44° WSW 18:27:02 10° NNW visible
11 Apr ? 04:49:55 10° ENE 04:52:17 16° ESE 04:54:41 10° SE visible
14 Apr ? 05:36:20 10° NNE 05:40:06 83° ESE 05:43:55 10° S visible
14 Apr ? 18:53:42 10° SW 18:55:59 16° WSW 18:58:17 10° WNW visible
